TimeSAST,TemperatureF,Dew PointF,Humidity,Sea Level PressureIn,VisibilityMPH,Wind Direction,Wind SpeedMPH,Gust SpeedMPH,PrecipitationIn,Events,Conditions,WindDirDegrees,DateUTC
12:00 AM,51.8,48.2,88,30.24,-9999.0,Variable,2.3,-,N/A,,Clear,0,2012-09-06 22:00:00
1:00 AM,50.0,48.2,94,30.21,-9999.0,NNE,3.5,-,N/A,,Clear,20,2012-09-06 23:00:00
2:00 AM,53,48,79,30.21,12,,2.3,,,,,,2012-09-07 00:00:00
2:00 AM,53.6,48.2,82,30.18,-9999.0,Variable,2.3,-,N/A,,Clear,0,2012-09-07 00:00:00
3:00 AM,50.0,44.6,82,30.18,-9999.0,Variable,2.3,-,N/A,,Clear,0,2012-09-07 01:00:00
4:00 AM,51.8,46.4,82,30.15,-9999.0,Variable,2.3,-,N/A,,Clear,0,2012-09-07 02:00:00
5:00 AM,49,46,83,30.13,12,NE,9.2,,,,Scattered Clouds,40,2012-09-07 03:00:00
5:00 AM,50.0,46.4,87,30.12,6.2,NE,9.2,-,N/A,,Partly Cloudy,40,2012-09-07 03:00:00
6:00 AM,55.4,46.4,72,30.09,6.2,North,4.6,-,N/A,,Partly Cloudy,10,2012-09-07 04:00:00
7:00 AM,55.4,46.4,72,30.09,-9999.0,NNW,3.5,-,N/A,,Clear,340,2012-09-07 05:00:00
8:00 AM,54,48,74,30.12,12,WNW,5.8,,,,Clear,290,2012-09-07 06:00:00
8:00 AM,55.4,48.2,77,30.09,-9999.0,WNW,4.6,-,N/A,,Clear,290,2012-09-07 06:00:00
9:00 AM,66.2,50.0,56,30.09,-9999.0,NW,4.6,-,N/A,,Clear,310,2012-09-07 07:00:00
10:00 AM,66.2,51.8,60,30.12,-9999.0,NW,5.8,-,N/A,,Clear,320,2012-09-07 08:00:00
11:00 AM,70,50,38,30.12,12,NW,3.5,,,,Clear,310,2012-09-07 09:00:00
11:00 AM,69.8,50.0,49,30.09,-9999.0,NW,3.5,-,N/A,,Clear,310,2012-09-07 09:00:00
12:00 PM,73.4,48.2,41,30.06,-9999.0,NW,6.9,-,N/A,,Clear,310,2012-09-07 10:00:00
1:00 PM,75.2,46.4,36,30.04,-9999.0,WNW,10.4,-,N/A,,Clear,300,2012-09-07 11:00:00
2:00 PM,78,41,16,30.01,19,West,15.0,,,,Clear,260,2012-09-07 12:00:00
2:00 PM,77.0,42.8,29,30.04,-9999.0,West,16.1,-,N/A,,Clear,260,2012-09-07 12:00:00
3:00 PM,77.0,44.6,32,30.01,-9999.0,WSW,13.8,-,N/A,,Clear,240,2012-09-07 13:00:00
4:00 PM,71.6,48.2,43,30.01,-9999.0,SSW,16.1,-,N/A,,Clear,200,2012-09-07 14:00:00
5:00 PM,66,48,41,30.05,19,SW,6.9,,,,,230,2012-09-07 15:00:00
5:00 PM,66.2,48.2,52,30.04,-9999.0,Variable,6.9,-,N/A,,Clear,0,2012-09-07 15:00:00
6:00 PM,62.6,48.2,59,30.06,-9999.0,WSW,5.8,-,N/A,,Clear,250,2012-09-07 16:00:00
7:00 PM,59.0,46.4,63,30.09,-9999.0,WSW,3.5,-,N/A,,Clear,250,2012-09-07 17:00:00
8:00 PM,57,45,55,30.12,19,North,3.5,,,,,0,2012-09-07 18:00:00
8:00 PM,57.2,44.6,63,30.12,-9999.0,North,2.3,-,N/A,,Clear,350,2012-09-07 18:00:00
9:00 PM,53.6,44.6,72,30.12,6.2,North,3.5,-,N/A,,Partly Cloudy,10,2012-09-07 19:00:00
10:00 PM,51.8,44.6,76,30.12,-9999.0,NNW,5.8,-,N/A,,Clear,330,2012-09-07 20:00:00
11:00 PM,51.8,42.8,71,30.12,-9999.0,NW,4.6,-,N/A,,Clear,320,2012-09-07 21:00:00